Flag for U.S.A. Weather past 2 weeks in Hartford, Connecticut, U.S.A.

Now
54 °F

Clear.


Feels Like: 54 °F
Forecast: 43 / 63 °F
Wind: 3 mph from South

Location: Hartford-Brainard Airport

Current Time: Apr 22, 2015 at 12:28:40 AM

Latest Report: Apr 21, 2015 at 10:53 PM


Visibility: 10 mi

Pressure: 29.74 "Hg

Humidity: 40%

Dew point: 30 °F

Location of HartfordLocation

Historic Weather in Hartford — Graph

°F

Hartford temperature yesterday

Maximum temperature yesterday: 65 °F (at 4:53 PM)
Minimum temperature yesterday: 50 °F (at 3:00 AM)
Average temperature yesterday: 56 °F

Past Weeks' High & Low Weather Summary

 TemperatureHumidityPressure
High79 °F (Apr 18, 5:53 PM)100% (Apr 10, 5:53 AM)30.50 "Hg (Apr 10, 5:53 AM)
Low32 °F (Apr 12, 4:53 AM)15% (Apr 15, 2:53 PM)29.55 "Hg (Apr 21, 5:53 AM)
Average50 °F64%30.11 "Hg
* Reported Apr 6 10:53 PM — Apr 21 10:53 PM, Hartford, Weather by CustomWeather, © 2015

Note: Actual official high and low records may vary slightly from our data, if they occured in-between our weather recording intervals... More about our weather records

Advertising

Hartford weather history for previous 24 hours

 ConditionsComfort  
Time TempWeatherWind HumidityBarometerVisibility
10:53 PM
Tue, Apr 21
54 °FClear.3 mph40%29.74 "Hg10 mi
9:53 PM56 °FClear.14 mph39%29.74 "Hg10 mi
8:53 PM57 °FClear.7 mph37%29.72 "Hg10 mi
7:53 PM60 °FSunny.10 mph30%29.69 "Hg10 mi
6:53 PM63 °FSunny.12 mph27%29.65 "Hg10 mi
5:53 PM64 °FPassing clouds.10 mph29%29.64 "Hg10 mi
4:53 PM65 °FOvercast.20 mph33%29.62 "Hg10 mi
3:53 PM63 °FScattered clouds.7 mph48%29.61 "Hg10 mi
2:53 PM61 °FPassing clouds.10 mph56%29.62 "Hg10 mi
1:53 PM59 °FMostly cloudy.7 mph62%29.63 "Hg10 mi
12:53 PM57 °FMostly cloudy.6 mph74%29.64 "Hg10 mi
11:53 AM54 °FMore clouds than sun.8 mph86%29.63 "Hg8 mi
10:53 AM55 °FFog.6 mph90%29.61 "Hg6 mi
9:53 AM53 °FLow clouds.3 mph89%29.59 "Hg9 mi
8:53 AM52 °FFog.5 mph89%29.57 "Hg5 mi
7:53 AM52 °FLow clouds.5 mph89%29.55 "Hg10 mi
6:53 AM51 °FMostly cloudy.6 mph92%29.55 "Hg10 mi
5:53 AM50 °FMostly cloudy.9 mph96%29.55 "Hg10 mi
4:53 AM50 °FRain. Fog.9 mph93%29.58 "Hg3 mi
3:53 AM51 °FLow clouds.7 mph92%29.56 "Hg10 mi
3:00 AM50 °FThunderstorms. Mostly cloudy.6 mph96%29.56 "Hg7 mi
1:53 AM51 °FFog.6 mph96%29.58 "Hg3 mi
1:00 AM52 °FLight rain. Fog.5 mph93%29.63 "Hg3 mi
12:04 AM53 °FLight rain. Fog.5 mph96%29.66 "Hg1 mi
Weather by CustomWeather, © 2015

See weather overviewHow to use our weather pages